W4CAT-13 Weather Reports


time (UTC)temp
C
wind
direction
speed
KPH
gust
KPH
rain 1hr
cm
rain 24hr
cm
rain mn
cm
humidity
%
barometer
mb
20260901090819 25 174 1.6 1.6 0.00 0.00 0.00 80 981.7
20260901085319 25 191 1.6 3.2 0.00 0.00 0.00 79 981.7
20260901083853 25 175 0.0 1.6 0.00 0.00 0.00 78 981.4
20260901083818 25 175 0.0 1.6 0.00 0.00 0.00 78 981.4
20260901082248 25 157 1.6 1.6 0.00 0.00 0.00 77 981.7
20260901080748 25 194 3.2 3.2 0.00 0.00 0.00 76 981.4
20260901075355 25 190 3.2 3.2 0.00 0.00 0.00 76 981.4
20260901075248 25 190 3.2 3.2 0.00 0.00 0.00 76 981.4
20260901073748 25 185 0.0 1.6 0.00 0.00 0.00 76 981.4
20260901072218 25 180 0.0 1.6 0.00 0.00 0.00 75 981.4
20260901070718 26 176 1.6 3.2 0.00 0.00 0.00 74 981.4
20260901065218 26 136 1.6 3.2 0.00 0.00 0.00 74 981.7
20260901063718 26 142 1.6 1.6 0.00 0.00 0.00 74 981.7
20260901062256 26 76 0.0 1.6 0.00 0.00 0.00 73 982.1
20260901062218 26 76 0.0 1.6 0.00 0.00 0.00 73 982.1
20260901060718 26 42 0.0 1.6 0.00 0.00 0.00 71 982.1
20260901055148 27 131 0.0 1.6 0.00 0.00 0.00 70 982.1
20260901053618 27 78 1.6 1.6 0.00 0.00 0.00 68 982.1
20260901052048 27 89 1.6 3.2 0.00 0.00 0.00 67 981.7
20260901050548 27 78 1.6 3.2 0.00 0.00 0.00 67 981.7
20260901045048 27 48 0.0 1.6 0.00 0.00 0.00 67 981.7
20260901043548 27 69 1.6 1.6 0.00 0.00 0.00 68 982.1
20260901042017 27 58 0.0 0.0 0.00 0.00 0.00 67 981.8
20260901040517 27 34 0.0 0.0 0.00 0.00 0.00 66 981.7
20260901035017 27 23 0.0 1.6 0.00 0.00 0.00 65 981.7
20260901033517 27 108 0.0 1.6 0.00 0.00 0.00 64 981.7
20260901032017 28 48 0.0 1.6 0.00 0.00 0.00 64 981.7
20260901030517 28 40 0.0 0.0 0.00 0.00 0.00 62 981.7
20260901025017 28 55 0.0 1.6 0.00 0.00 0.00 62 981.4
20260901023447 28 35 0.0 1.6 0.00 0.00 0.00 62 981.7
20260901021917 28 40 0.0 1.6 0.00 0.00 0.00 61 981.4
20260901020417 28 20 0.0 0.0 0.00 0.00 0.00 61 981.4
20260901014847 28 132 0.0 0.0 0.00 0.00 0.00 60 981.4
20260901013347 29 16 0.0 0.0 0.00 0.00 0.00 58 981.0
20260901011847 29 98 0.0 1.6 0.00 0.00 0.00 58 980.7
20260901010317 29 20 0.0 1.6 0.00 0.00 0.00 57 981.0
20260901004817 29 6 0.0 1.6 0.00 0.00 0.00 58 980.7
20260901003317 30 45 0.0 1.6 0.00 0.00 0.00 58 980.7
20260901001817 30 79 1.6 1.6 0.00 0.00 0.00 58 980.9
20260901000248 30 88 0.0 1.6 0.00 0.00 0.00 56 981.0
20260831234747 30 76 0.0 1.6 0.00 0.00 0.00 56 981.0
20260831233246 30 69 1.6 1.6 0.00 0.00 0.00 56 981.1
20260831231747 31 75 0.0 1.6 0.00 0.00 0.00 55 981.0
20260831230216 31 89 0.0 1.6 0.00 0.00 0.00 53 981.4
20260831224716 32 103 1.6 3.2 0.00 0.00 0.00 48 981.4
20260831223216 32 279 0.0 1.6 0.00 0.00 0.00 50 981.4
20260831221716 32 2 0.0 1.6 0.00 0.00 0.00 50 981.4
20260831220216 33 277 0.0 3.2 0.00 0.00 0.00 49 981.4
20260831214716 33 299 0.0 3.2 0.00 0.00 0.00 49 981.4
20260831213216 33 44 0.0 3.2 0.00 0.00 0.00 50 981.7
20260831211716 35 80 0.0 3.2 0.00 0.00 0.00 46 981.7
20260831210146 34 71 0.0 3.2 0.00 0.00 0.00 50 981.7
20260831204646 34 326 0.0 3.2 0.00 0.00 0.00 46 981.7
20260831203116 32 286 1.6 4.8 0.00 0.00 0.00 51 981.7
20260831201616 33 239 1.6 4.8 0.00 0.00 0.00 50 982.1
20260831200116 34 238 3.2 4.8 0.00 0.00 0.00 49 982.4
20260831194616 33 216 3.2 3.2 0.00 0.00 0.00 47 982.4
20260831193116 33 201 1.6 4.8 0.00 0.00 0.00 48 982.7
20260831191616 34 238 0.0 4.8 0.00 0.00 0.00 50 982.7
20260831190116 33 230 0.0 4.8 0.00 0.00 0.00 49 982.7
20260831184616 33 253 3.2 4.8 0.00 0.00 0.00 54 983.1
20260831183116 33 174 1.6 3.2 0.00 0.00 0.00 53 983.1
20260831181616 32 262 3.2 8.0 0.00 0.00 0.00 54 983.1
20260831180116 32 229 3.2 3.2 0.00 0.00 0.00 55 983.4
20260831174616 31 193 0.0 4.8 0.00 0.00 0.00 56 983.7
20260831173115 32 287 3.2 4.8 0.00 0.00 0.00 57 984.1
20260831171615 31 227 4.8 9.7 0.00 0.00 0.00 59 984.1
20260831170115 31 305 4.8 4.8 0.00 0.00 0.00 61 984.1
20260831164615 30 117 3.2 3.2 0.00 0.00 0.00 62 984.1
20260831163115 30 276 1.6 3.2 0.00 0.00 0.00 63 984.1
20260831161615 30 237 8.0 9.7 0.00 0.00 0.00 62 984.1
20260831160115 30 266 3.2 4.8 0.00 0.00 0.00 65 984.1
20260831154615 30 245 0.0 3.2 0.00 0.00 0.00 66 984.4
20260831153146 29 102 3.2 3.2 0.00 0.00 0.00 69 984.4
20260831153115 29 102 3.2 3.2 0.00 0.00 0.00 69 984.4
20260831151615 28 261 3.2 3.2 0.00 0.00 0.00 69 984.1
20260831150115 28 260 1.6 4.8 0.00 0.00 0.00 71 984.4
20260831144615 27 211 1.6 3.2 0.00 0.00 0.00 73 984.1
20260831143115 27 185 0.0 3.2 0.00 0.00 0.00 75 984.1
20260831141615 26 243 0.0 3.2 0.00 0.00 0.00 77 983.7
20260831140115 25 247 3.2 3.2 0.00 0.00 0.00 79 983.7
20260831134545 25 261 1.6 3.2 0.00 0.00 0.00 81 983.9
20260831133015 24 223 0.0 1.6 0.00 0.00 0.00 83 984.0
20260831131445 23 258 1.6 4.8 0.00 0.00 0.00 84 983.5
20260831125945 23 219 3.2 4.8 0.00 0.00 0.00 84 983.4